Weather History for KOZW - May, 2012

Change the Weather History Date:

Tuesday, May 1, 2012

  Actual Average Record
Temperature  
Mean Temperature 52 °F -  
Max Temperature 56 °F 64 °F 80 °F (2001)
Min Temperature 48 °F 43 °F 33 °F (2002)
Degree Days  
Heating Degree Days 13    
Growing Degree Days 2 (Base 50)    
Moisture  
Dew Point 49 °F    
Average Humidity 87    
Maximum Humidity 99    
Minimum Humidity 74    
Precipitation  
Precipitation 0.00 in - - ()
Sea Level Pressure  
Sea Level Pressure 30.00 in    
Wind  
Wind Speed 5 mph (ESE)    
Max Wind Speed 13 mph    
Max Gust Speed -    
Visibility 6 miles    
Events Fog    
Averages and records for this station are not official NWS values.
T = Trace of Precipitation, MM = Missing Value Source: NWS Daily Summary

Daily Weather History Graph

Daily Weather History Graph

Search for Another Location

Airport or City:

Trip Planner

Search our weather history database for the weather conditions in past years. The results will help you decide how hot, cold, wet, or windy it might be!

Date:

Astronomy

May. 01, 2012 Rise Set
Actual Time 6:29 AM EDT 8:36 PM EDT
Civil Twilight 5:59 AM EDT 9:07 PM EDT
Nautical Twilight 5:21 AM EDT 9:45 PM EDT
Astronomical Twilight 4:39 AM EDT 10:27 PM EDT
Moon 3:33 PM EDT (5/1) 3:33 AM EDT (5/1)
Length of Visible Light 15h 08m
Length of Day
14h 06m
Waxing Gibbous, 73% of the Moon is Illuminated
May 1
Waxing Gibbous
May 5
Full
May 12
Last Quarter
May 20
New
May 28
First Quarter

Hourly Weather History & Observations

Time (EDT) Temp. Dew Point Humidity Pressure Visibility Wind Dir Wind Speed Gust Speed Precip Events Conditions
12:15 AM 53.6 °F 53.2 °F 99% 29.91 in 0.5 mi NW 3.5 mph - N/A Fog Fog
12:34 AM 53.4 °F 52.7 °F 97% 29.91 in 0.5 mi NW 3.5 mph - N/A Fog Fog
1:15 AM 53.6 °F 52.7 °F 97% 29.91 in 0.8 mi NW 3.5 mph - N/A   Drizzle
1:34 AM 53.1 °F 52.2 °F 97% 29.92 in 2.0 mi NW 5.8 mph - N/A   Drizzle
1:54 AM 52.5 °F 51.4 °F 96% 29.92 in 2.5 mi NW 5.8 mph - N/A   Light Drizzle
2:14 AM 52.2 °F 51.1 °F 96% 29.93 in 3.0 mi NW 5.8 mph - N/A   Overcast
2:34 AM 51.8 °F 50.5 °F 95% 29.92 in 4.0 mi NNW 4.6 mph - N/A   Overcast
2:54 AM 51.4 °F 50.2 °F 95% 29.93 in 4.0 mi NW 5.8 mph - N/A   Overcast
3:14 AM 51.3 °F 50.0 °F 95% 29.93 in 2.0 mi NNW 4.6 mph - N/A   Overcast
3:34 AM 50.9 °F 49.6 °F 95% 29.93 in 1.8 mi NW 4.6 mph - N/A   Overcast
3:55 AM 50.2 °F 49.1 °F 96% 29.93 in 2.0 mi Calm Calm - N/A   Overcast
4:14 AM 50.2 °F 49.1 °F 96% 29.95 in 3.0 mi NNW 4.6 mph - N/A   Overcast
4:34 AM 50.0 °F 49.1 °F 97% 29.95 in 3.0 mi Calm Calm - N/A   Overcast
5:14 AM 50.4 °F 49.3 °F 96% 29.98 in 2.5 mi WNW 3.5 mph - N/A   Overcast
5:35 AM 50.0 °F 49.1 °F 97% 29.99 in 2.0 mi WNW 4.6 mph - N/A   Overcast
6:14 AM 51.1 °F 50.0 °F 96% 29.99 in 1.5 mi Calm Calm - N/A   Light Drizzle
6:35 AM 51.1 °F 49.1 °F 93% 30.00 in 1.8 mi West 5.8 mph - N/A   Overcast
6:54 AM 50.0 °F 48.6 °F 95% 30.01 in 2.5 mi West 4.6 mph - N/A   Overcast
7:14 AM 49.5 °F 48.4 °F 96% 30.02 in 2.0 mi WNW 8.1 mph - N/A   Overcast
7:35 AM 48.2 °F 46.8 °F 95% 30.03 in 2.0 mi WNW 11.5 mph - N/A   Overcast
7:54 AM 48.2 °F 46.8 °F 95% 30.04 in 1.5 mi WNW 9.2 mph - N/A   Overcast
8:34 AM 48.2 °F 46.9 °F 95% 30.05 in 2.0 mi WNW 9.2 mph - N/A   Overcast
9:15 AM 48.9 °F 47.3 °F 94% 30.05 in 3.0 mi WNW 6.9 mph - N/A   Overcast
9:34 AM 49.3 °F 47.3 °F 93% 30.04 in 4.0 mi WNW 3.5 mph - N/A   Overcast
10:15 AM 50.2 °F 47.5 °F 90% 30.05 in 5.0 mi Calm Calm - N/A   Overcast
10:34 AM 50.0 °F 46.8 °F 89% 30.05 in 7.0 mi WSW 5.8 mph - N/A   Overcast
10:54 AM 49.1 °F 46.0 °F 89% 30.06 in 7.0 mi West 6.9 mph - N/A   Overcast
11:15 AM 49.1 °F 46.0 °F 89% 30.07 in 7.0 mi SW 5.8 mph - N/A   Overcast
11:34 AM 49.1 °F 46.0 °F 89% 30.07 in 5.0 mi SW 5.8 mph - N/A   Overcast
11:54 AM 49.3 °F 45.9 °F 88% 30.07 in 7.0 mi WSW 3.5 mph - N/A   Overcast
12:15 PM 49.5 °F 45.9 °F 87% 30.06 in 7.0 mi Calm Calm - N/A   Overcast
12:34 PM 50.2 °F 46.4 °F 87% 30.07 in 7.0 mi Calm Calm - N/A   Overcast
12:54 PM 50.2 °F 46.2 °F 86% 30.07 in 7.0 mi Calm Calm - N/A   Overcast
1:15 PM 50.7 °F 46.4 °F 85% 30.07 in 7.0 mi Calm Calm - N/A   Overcast
1:34 PM 50.4 °F 46.4 °F 86% 30.07 in 7.0 mi Calm Calm - N/A   Overcast
1:55 PM 51.3 °F 46.6 °F 84% 30.07 in 7.0 mi South 5.8 mph - N/A   Overcast
2:14 PM 51.8 °F 46.8 °F 83% 30.07 in 7.0 mi SSW 5.8 mph - N/A   Overcast
2:34 PM 52.7 °F 47.1 °F 81% 30.06 in 7.0 mi SSE 4.6 mph - N/A   Overcast
2:55 PM 52.7 °F 47.1 °F 81% 30.06 in 7.0 mi Calm Calm - N/A   Overcast
3:14 PM 53.2 °F 47.3 °F 80% 30.06 in 7.0 mi SSE 3.5 mph - N/A   Mostly Cloudy
3:34 PM 53.6 °F 46.9 °F 78% 30.05 in 10.0 mi Calm Calm - N/A   Scattered Clouds
4:14 PM 54.3 °F 47.8 °F 79% 30.03 in 7.0 mi East 4.6 mph - N/A   Scattered Clouds
4:34 PM 55.4 °F 48.6 °F 78% 30.03 in 7.0 mi SE 6.9 mph - N/A   Mostly Cloudy
4:55 PM 55.4 °F 48.2 °F 77% 30.03 in 10.0 mi SSE 5.8 mph - N/A   Scattered Clouds
5:14 PM 56.1 °F 48.7 °F 76% 30.01 in 10.0 mi ESE 5.8 mph - N/A   Scattered Clouds
5:34 PM 56.5 °F 48.6 °F 75% 30.00 in 10.0 mi ESE 5.8 mph - N/A   Clear
5:54 PM 56.7 °F 48.6 °F 74% 29.98 in 10.0 mi East 8.1 mph - N/A   Clear
6:14 PM 56.7 °F 48.9 °F 75% 29.97 in 10.0 mi East 6.9 mph - N/A   Scattered Clouds
6:35 PM 56.7 °F 49.1 °F 76% 29.98 in 10.0 mi ENE 4.6 mph - N/A   Overcast
6:54 PM 56.8 °F 49.5 °F 76% 29.98 in 10.0 mi East 3.5 mph - N/A   Overcast
7:14 PM 56.7 °F 49.8 °F 78% 29.97 in 10.0 mi Calm Calm - N/A   Overcast
7:35 PM 56.7 °F 50.4 °F 79% 29.97 in 10.0 mi East 4.6 mph - N/A   Overcast
7:54 PM 56.5 °F 50.2 °F 79% 29.96 in 10.0 mi East 5.8 mph - N/A   Overcast
8:14 PM 56.1 °F 50.4 °F 81% 29.97 in 10.0 mi ESE 4.6 mph - N/A   Overcast
8:35 PM 56.5 °F 50.4 °F 80% 29.97 in 10.0 mi East 5.8 mph - N/A   Overcast
8:54 PM 56.3 °F 50.4 °F 80% 29.96 in 10.0 mi East 5.8 mph - N/A   Overcast
9:14 PM 56.3 °F 50.2 °F 80% 29.97 in 10.0 mi East 6.9 mph - N/A   Overcast
9:35 PM 56.1 °F 50.0 °F 80% 29.98 in 7.0 mi ESE 11.5 mph - N/A   Overcast
9:54 PM 55.4 °F 50.0 °F 82% 29.97 in 7.0 mi ESE 9.2 mph - N/A   Overcast
10:15 PM 54.9 °F 49.8 °F 83% 29.98 in 7.0 mi ESE 10.4 mph - N/A   Overcast
10:34 PM 54.5 °F 49.5 °F 83% 29.97 in 7.0 mi ESE 10.4 mph - N/A   Mostly Cloudy
10:54 PM 54.1 °F 49.5 °F 84% 29.97 in 7.0 mi ESE 9.2 mph - N/A   Scattered Clouds
11:15 PM 53.8 °F 49.6 °F 86% 29.97 in 7.0 mi SE 12.7 mph - N/A   Overcast
11:34 PM 53.6 °F 49.6 °F 86% 29.97 in 7.0 mi ESE 11.5 mph - N/A   Overcast
11:54 PM 53.4 °F 49.5 °F 86% 29.96 in 7.0 mi ESE 10.4 mph - N/A   Overcast